Location: Emblem
(62.4273°N, 6.4710°E)
Time: 00:43:05
(UTC+02:00)

UWE-3 - Pass Details

Date: 25 March 2023
Orbit: 577 x 669 km, 97.7° (Epoch: 06 June)

Event Time Altitude Azimuth Distance (km) Brightness Sun altitude
Rises 05:04:40 0° 17° (NNE) 3,038 ? -9.3°
Reaches altitude 10° 05:07:01 10° 10° (N) 2,115 ? -9.0°
Maximum altitude 05:11:19 39° 302° (WNW) 995 ? -8.6°
Drops below altitude 10° 05:15:31 10° 234° (SW) 2,067 ? -8.1°
Enters shadow 05:15:43 - 233° (SW) 2,143 ? -8.1°
